Terug naar catalogus

SCOUT B DEB

LostPO
NORAD 29278·DEBRIS·🇺🇸 United States

Gelanceerd Aug 8, 1968 vanaf Vandenberg Space Force Base

Loading…

Volgende Passages (komende 24 uur)

TLE

VerouderdSource: Space-Track

Epoch: Jun 18, 2026, 20:50 UTC

1 29278U 68066M   26169.86833442  .00005098  00000-0  28819-2 0  9998
2 29278  80.5772  34.0810 0673872  87.8972 279.9118 13.32188831539663

Volg SCOUT B DEB in realtime met AllMySat

Download on the App Store